GW2112 Weather Reports


time (UTC)temp
F
wind
direction
speed
knots
gust
knots
rain 1hr
in
rain 24hr
in
rain mn
in
humidity
%
barometer
mb
20260906233039 64 338 1.7 7.0 0.00 0.12 0.02 77 1015.4
20260906231535 64 292 2.6 6.1 0.00 0.12 0.02 77 1015.5
20260906230039 63 290 3.5 6.1 0.00 0.12 0.02 79 1015.8
20260906224540 63 292 4.3 7.0 0.00 0.12 0.02 81 1015.9
20260906223040 63 327 2.6 5.2 0.00 0.12 0.02 80 1016.1
20260906221540 63 43 2.6 7.0 0.00 0.12 0.02 80 1016.0
20260906220036 63 51 4.3 8.7 0.00 0.12 0.02 79 1015.9
20260906214542 63 60 4.3 8.7 0.00 0.12 0.02 79 1016.0
20260906213040 63 47 5.2 9.6 0.00 0.12 0.02 79 1016.0
20260906211539 63 58 6.1 13.0 0.00 0.12 0.02 79 1016.0
20260906210043 64 54 7.8 10.4 0.00 0.12 0.02 78 1015.9
20260906204539 64 46 7.0 10.4 0.00 0.12 0.02 78 1016.0
20260906203038 63 53 7.8 11.3 0.00 0.12 0.02 78 1015.9
20260906201538 63 55 7.8 12.2 0.00 0.12 0.02 79 1016.1
20260906200039 63 60 5.2 10.4 0.00 0.12 0.02 79 1016.2
20260906194539 63 41 6.1 10.4 0.00 0.12 0.02 77 1016.3
20260906193041 63 15 7.8 11.3 0.00 0.12 0.02 77 1016.2
20260906191535 63 66 8.7 13.9 0.00 0.12 0.02 76 1016.3
20260906190042 63 55 10.4 18.2 0.00 0.12 0.02 75 1016.3
20260906184540 63 47 10.4 15.6 0.00 0.12 0.02 77 1016.2
20260906183047 62 50 7.0 15.6 0.01 0.12 0.02 79 1016.6
20260906181544 62 52 6.1 16.5 0.01 0.12 0.02 83 1016.4
20260906180041 60 55 10.4 13.9 0.01 0.12 0.02 85 1016.6
20260906174536 58 61 11.3 14.8 0.01 0.12 0.02 93 1016.5
20260906173039 57 342 1.7 2.6 0.00 0.11 0.01 93 1018.1
20260906171541 57 292 3.5 6.1 0.00 0.11 0.01 92 1018.5
20260906170038 57 245 0.9 1.7 0.00 0.11 0.01 92 1018.4
20260906164541 57 38 0.0 1.7 0.00 0.11 0.01 92 1018.3
20260906163038 57 37 0.9 4.3 0.00 0.11 0.01 93 1018.4
20260906161539 56 21 2.6 4.3 0.00 0.11 0.01 93 1018.2
20260906160041 55 340 2.6 7.0 0.00 0.11 0.01 93 1018.2
20260906154537 54 306 4.3 10.4 0.00 0.11 0.01 92 1018.6
20260906153039 54 271 4.3 11.3 0.00 0.11 0.01 91 1018.9
20260906151544 54 308 6.1 10.4 0.00 0.11 0.01 90 1018.9
20260906150040 55 273 8.7 13.0 0.00 0.11 0.01 89 1019.1
20260906144539 56 275 6.1 16.5 0.00 0.11 0.01 88 1019.5
20260906143038 58 284 1.7 5.2 0.00 0.11 0.01 89 1019.2
20260906141536 58 49 5.2 8.7 0.00 0.11 0.01 89 1018.6
20260906140049 58 39 3.5 5.2 0.00 0.11 0.01 88 1018.8
20260906134537 59 327 1.7 7.0 0.00 0.16 0.01 87 1018.8
20260906133041 58 48 7.8 13.0 0.00 0.16 0.01 89 1018.1
20260906131541 57 54 7.0 10.4 0.00 0.16 0.01 90 1018.4
20260906130042 57 46 3.5 11.3 0.00 0.16 0.01 90 1018.6
20260906124540 57 56 7.8 11.3 0.00 0.16 0.01 90 1018.6
20260906123043 56 45 7.0 12.2 0.00 0.16 0.01 91 1018.5
20260906121542 56 39 7.8 13.0 0.00 0.16 0.01 91 1018.4
20260906120039 56 65 6.1 10.4 0.00 0.16 0.01 91 1018.6
20260906114542 56 327 3.5 10.4 0.00 0.16 0.01 90 1018.8
20260906113050 56 36 7.0 11.3 0.00 0.16 0.01 90 1018.6
20260906111542 56 28 8.7 13.9 0.00 0.16 0.01 89 1018.5
20260906110040 56 30 8.7 12.2 0.00 0.16 0.01 89 1018.5
20260906104540 57 36 7.0 12.2 0.00 0.16 0.01 88 1018.7
20260906103050 57 38 8.7 15.6 0.00 0.16 0.01 88 1018.7
20260906101546 57 29 9.6 13.9 0.00 0.16 0.01 88 1018.8
20260906100044 56 34 8.7 15.6 0.00 0.16 0.01 89 1018.9
20260906094539 56 40 5.2 13.0 0.00 0.16 0.01 88 1018.7
20260906093042 57 14 6.1 12.2 0.00 0.16 0.01 87 1018.7
20260906091542 57 16 7.8 14.8 0.00 0.16 0.01 87 1019.0
20260906090043 57 346 7.0 13.0 0.00 0.16 0.01 87 1019.4
20260906084541 56 335 6.1 10.4 0.00 0.16 0.01 89 1019.8
20260906083043 57 17 5.2 14.8 0.00 0.16 0.01 87 1019.9
20260906081540 57 314 4.3 10.4 0.00 0.16 0.01 88 1019.7
20260906080039 56 327 5.2 12.2 0.00 0.16 0.01 88 1019.5
20260906074542 57 34 4.3 13.0 0.00 0.16 0.01 87 1019.4
20260906073038 57 360 7.0 13.0 0.00 0.16 0.01 87 1019.5
20260906071537 57 331 6.1 12.2 0.01 0.16 0.01 86 1019.5
20260906070040 58 336 7.0 15.6 0.01 0.16 0.01 86 1019.5
20260906064538 57 314 4.3 9.6 0.01 0.16 0.01 87 1020.3
20260906063036 57 343 4.3 14.8 0.01 0.16 0.01 87 1020.5
20260906061539 57 51 7.0 14.8 0.00 0.15 0.00 88 1020.0
20260906060036 57 47 6.1 12.2 0.00 0.15 0.00 88 1020.1
20260906054538 56 30 6.1 13.9 0.02 0.15 0.15 87 1020.2
20260906053037 56 11 9.6 14.8 0.02 0.15 0.15 86 1019.8
20260906051538 56 9 7.8 13.9 0.02 0.15 0.15 86 1019.9
20260906050035 56 65 5.2 11.3 0.02 0.15 0.15 86 1019.7
20260906044539 57 19 7.0 13.0 0.00 0.13 0.13 85 1019.8
20260906043036 57 28 5.2 13.0 0.00 0.13 0.13 86 1019.9
20260906041540 57 329 6.1 17.4 0.08 0.13 0.13 86 1019.3
20260906040037 57 26 7.0 14.8 0.08 0.13 0.13 85 1019.2
20260906034535 57 11 5.2 13.0 0.08 0.13 0.13 85 1019.5
20260906033038 58 331 9.6 13.0 0.08 0.13 0.13 81 1019.8
20260906031540 61 336 7.0 13.9 0.00 0.05 0.05 70 1020.5
20260906030038 60 36 5.2 16.5 0.00 0.05 0.05 70 1018.9
20260906024538 60 60 7.0 13.0 0.00 0.05 0.05 70 1018.4
20260906023045 61 20 11.3 20.0 0.00 0.05 0.05 70 1018.0
20260906021544 61 46 12.2 19.1 0.00 0.05 0.05 68 1018.0
20260906020036 62 54 11.3 15.6 0.00 0.05 0.05 66 1018.0
20260906014546 63 31 9.6 14.8 0.00 0.05 0.05 65 1018.0
20260906013044 64 36 7.0 13.0 0.00 0.05 0.05 62 1018.1
20260906011539 65 40 10.4 13.0 0.00 0.05 0.05 60 1018.0
20260906010036 66 45 10.4 14.8 0.00 0.05 0.05 59 1018.1
20260906004538 67 52 11.3 16.5 0.00 0.05 0.05 58 1018.2
20260906003037 69 48 12.2 16.5 0.00 0.05 0.05 55 1018.2
20260906001542 69 57 11.3 18.2 0.00 0.05 0.05 54 1018.2
20260906000040 71 53 9.6 13.0 0.00 0.05 0.05 52 1018.2
20260905234541 72 36 11.3 14.8 0.00 0.05 0.05 49 1018.5